IVALO current weather conditions

sailwx.info

Wind from 180 at 12 knots

Air temperature -5.0° C
Dewpoint -10.0° C

Last reported at 2014-Oct-23 10:20 UTC.
Time now 2014-Oct-23 11:50 UTC

Location: N 68°37' E 027°25'.
View on Google Maps.

See reports from other nearby stations

  
Tides and Currents Weather Stations Pressure Air Temp Water Temp Dewpoint Dewpoint Depression Visibility Wind Speed Wind Dir Waves Ship Positions
date/time (UTC)wind fromknots sea level pressurealtimeterstation pressurevisibilityair tempwater tempwave heightnotes
2014-Oct-23 10:20 180 12 -5.0
2014-Oct-23 09:50 180 11 -5.0
2014-Oct-23 09:20 180 12 -5.0
2014-Oct-23 08:50 180 11 -5.0
2014-Oct-23 08:20 200 13 gusting 24 5.4-5.0
2014-Oct-23 07:50 190 10 -6.0
2014-Oct-23 07:20 200 6 -7.0
2014-Oct-23 06:50 -7.0
2014-Oct-23 06:20 180 5 -7.0
2014-Oct-23 05:50 180 6 5.4-8.0
2014-Oct-23 05:20 170 5 5.4-7.0
2014-Oct-23 04:50 210 9 -7.0
2014-Oct-23 04:20 210 8 -7.0
2014-Oct-23 03:50 210 7 -8.0
2014-Oct-23 03:20 220 5 -8.0
2014-Oct-23 02:50 210 7 -8.0
2014-Oct-23 02:20 210 9 -8.0
2014-Oct-23 01:50 210 7 -8.0
2014-Oct-23 01:20 190 8 5.4-8.0
2014-Oct-23 00:50 190 8 5.4-8.0
2014-Oct-23 00:20 190 9 5.4-8.0
2014-Oct-22 23:50 180 7 -8.0
2014-Oct-22 23:20 190 7 -8.0
2014-Oct-22 22:50 190 9 -7.0
2014-Oct-22 22:20 190 9 -7.0
2014-Oct-22 21:50 190 8 -7.0
2014-Oct-22 21:20 190 7 -7.0
2014-Oct-22 20:50 190 9 -7.0
2014-Oct-22 20:20 190 9 -7.0
2014-Oct-22 19:50 180 7 -7.0
2014-Oct-22 19:20 190 8 -7.0
2014-Oct-22 18:50 200 9 -7.0
2014-Oct-22 18:20 190 7 -7.0
2014-Oct-22 17:50 190 8 -7.0
2014-Oct-22 17:20 180 4 -8.0
2014-Oct-22 16:50 190 5 -8.0
2014-Oct-22 16:20 180 5 -8.0
2014-Oct-22 15:50 170 6 -8.0
2014-Oct-22 15:20 190 5 -8.0
2014-Oct-22 14:50 180 5 -8.0
2014-Oct-22 14:20 170 5 -8.0
2014-Oct-22 13:50 170 5 -7.0
2014-Oct-22 13:20 170 7 -7.0
2014-Oct-22 12:50 170 6 -6.0
2014-Oct-22 12:20 170 5 -6.0
2014-Oct-22 11:50 170 5 -6.0
2014-Oct-22 11:20 160 4 -6.0
2014-Oct-22 10:50 180 5 -7.0
2014-Oct-22 10:20 170 2 -7.0
2014-Oct-22 09:50 170 2 -7.0
2014-Oct-22 09:20 5.4-10.0
2014-Oct-22 08:50 5.4-12.0
2014-Oct-22 08:20 -13.0
2014-Oct-22 07:50 5.4-15.0 Light snow showers.
2014-Oct-22 07:20 5.4-13.0 Light snow grains.
2014-Oct-22 06:50 5.4-16.0 Light snow grains.
2014-Oct-22 06:20 5.4-17.0 Light snow grains.
2014-Oct-22 05:50 1.1-18.0 Light snow.
2014-Oct-22 05:20 250 1 2.7-18.0 Light snow.
2014-Oct-22 04:50 -19.0
2014-Oct-22 04:20 -19.0
2014-Oct-22 03:50 -20.0
2014-Oct-22 03:20 -20.0
2014-Oct-22 02:50 -20.0
2014-Oct-22 02:20 -20.0
2014-Oct-22 01:50 -20.0
2014-Oct-22 01:20 250 1 -20.0
2014-Oct-22 00:50 240 2 -20.0
2014-Oct-22 00:20 250 1 -20.0
2014-Oct-21 23:50 250 1 -20.0
2014-Oct-21 23:20 240 2 -20.0
2014-Oct-21 22:50 250 2 -20.0
2014-Oct-21 22:20 240 1 -20.0
2014-Oct-21 21:50 240 1 -19.0
2014-Oct-21 21:20 240 1 -19.0
2014-Oct-21 20:50 250 1 -19.0
2014-Oct-21 20:20 230 1 -18.0
2014-Oct-21 19:50 230 2 -18.0
2014-Oct-21 19:20 230 1 -18.0
2014-Oct-21 18:50 230 1 -17.0
2014-Oct-21 18:20 5.4-17.0 Light snow showers.
2014-Oct-21 17:50 0.4-16.0 Fog.
2014-Oct-21 17:20 -15.0
2014-Oct-21 16:50 -14.0
2014-Oct-21 16:20 -13.0
2014-Oct-21 15:50 -12.0
2014-Oct-21 15:20 -13.0
2014-Oct-21 14:51 020 1 -10.0
2014-Oct-21 14:20 -10.0
2014-Oct-21 13:50 -8.0
2014-Oct-21 13:20 090 1 -8.0
2014-Oct-21 12:50 070 1 -7.0
2014-Oct-21 12:20 070 1 -7.0
2014-Oct-21 11:50 120 1 -7.0
2014-Oct-21 11:20 100 2 -7.0